Hourly Data Report for September 25, 2017

All times are specified in Local Standard Time (LST). Add 1 hour to adjust for Daylight Saving Time where and when it is observed.

ARCTIC BAY CS
NUNAVUT

72°59'34.000" N
85°00'44.000" W
10.00 m
2400404
71592
XAT

Download Data

Hourly Data (September 2017)
Hourly Data Report for September 25, 2017
Temp Definition
°C
Dew Point Temp Definition
°C
Rel Hum Definition
%
Wind Dir Definition
10's deg

Wind Spd Definition
km/h
Visibility Definition
km
Stn Press Definition
kPa
Hmdx Definition


Wind Chill Definition


Weather Definition


TIME
00:00 -1.7 -5.7 74 35 25   100.98   -8 LegendNANA
01:00 -2.1 -6.0 75 34 25   100.96   -9 LegendNANA
02:00 -2.4 -6.2 75 34 28   100.92   -9 LegendNANA
03:00 -2.4 -6.0 76 33 23   100.94   -9 LegendNANA
04:00 -2.9 -6.3 78 34 15   100.95   -8 LegendNANA
05:00 -2.4 -5.9 77 34 19   100.94   -8 LegendNANA
06:00 -2.5 -5.5 80 33 32   100.90   -10 LegendNANA
07:00 -2.1 -5.5 77 33 12   100.93   -6 LegendNANA
08:00 -2.5 -5.7 79 33 17   100.90   -8 LegendNANA
09:00 -2.2 -5.4 79 33 21   100.87   -8 LegendNANA
10:00 -2.3 -5.3 80 32 13   100.86   -7 LegendNANA
11:00 -2.9 -6.2 78 34 7   100.86   -6 LegendNANA
12:00 -0.9 -5.6 70 25 5   100.84   -3 LegendNANA
13:00 -2.3 -6.1 75 12 9   100.87   -6 LegendNANA
14:00 -0.9 -5.6 71 10 6   100.92   -3 LegendNANA
15:00
16:00
17:00 -3.1 -6.8 75 36 4   101.01   -5 LegendNANA
18:00 -3.7 -6.6 80 1 3   101.04   -5 LegendNANA
19:00 -3.2 -6.5 78 6 15   101.05   -8 LegendNANA
20:00 -2.2 -5.5 78 7 10   101.07   -6 LegendNANA
21:00 -2.3 -5.2 80 7 5   101.10   -4 LegendNANA
22:00 -1.9 -4.7 81 5 5   101.12   -4 LegendNANA
23:00 -1.4 -4.4 80 0 1   101.10   -2 LegendNANA

Notes on Data Quality.

Legend

  • E = Estimated
  • M = Missing
  • NA = Not Available
  • ‡ = Partner data that is not subject to review by the National Climate Archives
Date modified: